[[[{"header":{"parameterUnit":"kt","parameterCategory":2,"dx":1,"dy":1,"la1":30.253999710083008,"la2":30.299108505249023,"lo1":-89.0895004272461,"lo2":-89.04439544677734,"nx":28,"ny":28,"refTime":"2022-09-25T21:00:00:Z","depth":0,"parameterNumber":1,"parameterNumberName":"U-component_of_WINDS"},"data":[2.1748,2.1827,2.1849,2.1951,2.1988,2.2062,2.2096,2.2144,2.2188,2.2282,2.2342,2.2375,2.243,2.251,2.2578,2.2592,2.262,2.2633,2.2647,2.2567,2.2557,2.2548,2.253,2.2638,2.2638,2.2728,2.2729,2.2729,2.1692,2.1729,2.1788,2.186,2.1912,2.1913,2.1972,2.2017,2.2084,2.2139,2.2197,2.2284,2.2356,2.2409,2.2484,2.2526,2.2532,2.2545,2.2542,2.2552,2.2466,2.2446,2.2538,2.2538,2.2538,2.2538,2.2538,2.2538,2.1596,2.1642,2.1697,2.1762,2.1804,2.1853,2.1902,2.1939,2.1999,2.2076,2.2091,2.217,2.2231,2.2332,2.2372,2.2437,2.2427,2.2449,2.2455,2.246,2.2464,2.2335,2.245,2.245,2.245,2.245,2.245,0,2.1533,2.1547,2.1604,2.1668,2.1716,2.1769,2.1821,2.1852,2.1892,2.1941,2.2014,2.206,2.2153,2.2226,2.2301,2.2339,2.2348,2.2351,2.2367,2.236,2.2346,2.2357,2.2218,2.2347,2.2347,2.2346,2.2346,2.2345,2.1439,2.1489,2.1556,2.1593,2.1626,2.1687,2.1728,2.1758,2.1801,2.1872,2.1913,2.1986,2.2045,2.2161,2.2207,2.2278,2.2283,2.2331,2.2294,2.2287,2.2287,2.2284,2.2291,2.2337,2.2338,2.2339,2.234,0,2.1385,2.1418,2.1502,2.1563,2.158,2.1632,2.1687,2.1735,2.1766,2.1837,2.1856,2.1905,2.1977,2.2015,2.2106,2.2124,2.2219,2.2221,2.2199,2.2202,2.225,2.2246,2.2394,2.2416,2.2302,2.2303,2.2304,0,2.1319,2.1383,2.1428,2.1475,2.1549,2.1576,2.165,2.1683,2.1732,2.1789,2.1802,2.1855,2.1895,2.1955,2.1982,2.2066,2.2082,2.2102,2.2109,2.2102,2.2099,2.2127,2.2122,2.2118,2.2118,2.2117,2.2116,0,2.1231,2.1329,2.1405,2.1433,2.1505,2.1541,2.1573,2.1628,2.1668,2.1726,2.1753,2.182,2.1858,2.1911,2.1944,2.1918,2.2046,2.2018,2.2067,2.2066,2.2094,2.2092,2.2213,2.2115,2.2115,2.2115,2.2115,0,2.1183,2.1236,2.134,2.14,2.1425,2.1476,2.1541,2.1592,2.1649,2.1668,2.1715,2.1728,2.1801,2.177,2.1874,2.1831,2.1868,2.1893,2.1897,2.1907,2.1872,2.1937,2.2046,2.206,2.1916,2.1915,2.1913,0,2.1076,2.1187,2.121,2.1309,2.1366,2.1375,2.1433,2.1481,2.151,2.1565,2.1599,2.1662,2.1647,2.1672,2.1718,2.1756,2.1812,2.175,2.1836,2.1839,2.1821,2.1922,2.1929,2.2018,2.1892,2.1894,2.1896,0,2.0996,2.1077,2.1093,2.1126,2.1191,2.1238,2.1303,2.137,2.1405,2.1457,2.1515,2.1604,2.1597,2.1637,2.1655,2.1701,2.1775,2.1687,2.1689,2.1704,2.1884,2.1891,2.1905,2.1778,2.1781,2.1783,2.1879,0,2.0919,2.0977,2.102,2.1089,2.113,2.1193,2.1227,2.1267,2.1278,2.1306,2.1391,2.144,2.151,2.1535,2.1547,2.1638,2.1629,2.162,2.1594,2.1659,2.1692,2.1705,2.1542,2.1541,2.1541,2.154,0,0,2.081,2.0893,2.0913,2.0974,2.1011,2.1018,2.1082,2.1119,2.1192,2.1219,2.1204,2.1336,2.1376,2.1476,2.1499,2.1526,2.1548,2.1522,2.1627,2.1636,2.1645,2.168,2.1693,2.1539,2.1539,2.1539,2.1539,0,2.0788,2.0821,2.0882,2.092,2.0976,2.1001,2.1016,2.1074,2.1095,2.1175,2.1182,2.1237,2.134,2.1383,2.1419,2.1511,2.1515,2.153,2.1568,2.1621,2.1631,2.164,2.1676,2.1688,2.1538,2.1538,2.1538,0,2.0716,2.0756,2.0788,2.0866,2.0904,2.0961,2.0941,2.1001,2.1045,2.1052,2.1131,2.1163,2.1223,2.1311,2.1352,2.134,2.1483,2.1443,2.1447,2.1452,2.1506,2.1518,2.1528,2.1387,2.1387,2.1386,0,0,2.0693,2.0746,2.0798,2.0864,2.0887,2.0924,2.0958,2.0971,2.1021,2.1041,2.1082,2.1133,2.1194,2.1234,2.1292,2.1383,2.1399,2.1422,2.143,2.1435,2.1444,2.1499,2.1511,2.1383,2.1383,2.1383,0,0,2.0683,2.0744,2.0745,2.0825,2.0871,2.0928,2.0969,2.0973,2.1027,2.1024,2.1053,2.1067,2.115,2.1181,2.1142,2.1284,2.1257,2.1267,2.126,2.127,2.1277,2.1268,2.113,0,0,0,0,0,2.0676,2.0736,2.0736,2.0754,2.0853,2.0928,2.0941,2.0964,2.0944,2.0977,2.1011,2.1011,2.1167,2.1133,2.1153,2.1196,2.135,2.1356,2.1362,2.1375,2.1384,2.1392,0,0,0,0,0,0,2.0683,2.0705,2.0735,2.0793,2.0816,2.0926,2.0898,2.0906,2.0941,2.094,2.1005,2.1014,2.1036,2.1125,2.1142,2.1182,2.1124,2.1352,2.1357,2.1362,2.1378,2.1386,2.1392,0,0,0,0,0,2.0689,2.0707,2.0859,2.0793,2.0813,2.0857,2.0896,2.0902,2.093,2.0983,2.0992,2.0944,2.1037,2.1053,2.1135,2.1174,2.1113,2.1119,2.1356,2.136,2.1363,2.1382,0,0,0,0,0,0,2.0694,2.0715,2.0864,2.0871,2.077,2.0851,2.0864,2.0899,2.0972,2.0981,2.0924,2.0922,2.1038,2.105,2.1063,2.117,2.1103,2.1109,2.1113,2.1359,2.1362,2.1365,0,0,0,0,0,0,2.0705,2.0721,2.0867,2.0838,2.0841,2.0846,2.0858,2.0931,2.0973,2.0908,2.0909,2.0922,2.102,2.1049,2.1058,2.1172,2.1096,2.1102,2.1106,2.1109,2.1361,2.1364,0,0,0,0,0,0,2.0712,2.0725,2.0836,2.0839,2.0842,2.0923,2.0912,2.1013,2.0944,2.0905,2.0938,2.0936,2.1019,2.1029,2.1055,2.1164,2.117,2.1096,2.11,2.1103,2.1105,0,0,0,0,0,0,0,2.0718,2.0624,2.0822,2.084,2.0843,2.0935,2.0937,2.0939,2.0943,2.0941,2.0939,2.0937,2.106,2.1067,2.1074,2.1158,0,0,2.1095,2.1098,0,0,0,0,0,0,0,0,2.0619,2.0623,2.0822,2.0823,2.0825,2.0935,2.0937,2.0939,2.0943,2.0941,2.0939,2.0938,2.1062,2.1068,2.1073,0,0,0,0,0,0,0,0,0,0,0,0,0,0,0,2.0822,2.0823,0,2.0936,2.0937,2.0938,2.0943,2.0941,2.094,2.0938,2.1064,2.1068,2.1073,0,0,0,0,0,0,0,0,0,0,0,0,0,0,0,0,0,0,0,0,0,0,0,0,0,0,0,0,0,0,0,0,0,0,0,0,0,0,0,0,0,0,0,0,0,0,0,0,0,0,0,0,0,0,0,0,0,0,0,0,0,0,0,0,0,0,0,0,0]}],[{"header":{"parameterUnit":"kt","parameterCategory":2,"dx":1,"dy":1,"la1":30.253999710083008,"la2":30.299108505249023,"lo1":-89.0895004272461,"lo2":-89.04439544677734,"nx":28,"ny":28,"refTime":"2022-09-25T21:00:00:Z","depth":0,"parameterNumber":2,"parameterNumberName":"V-component_of_WINDS"},"data":[-1.2138,-1.1751,-1.1684,-1.121,-1.1069,-1.0732,-1.059,-1.0398,-1.0227,-0.9816,-0.9567,-0.9455,-0.9254,-0.8937,-0.8662,-0.8617,-0.8504,-0.8422,-0.8383,-0.882,-0.8876,-0.8929,-0.9017,-0.8399,-0.8398,-0.7939,-0.7935,-0.7932,-1.248,-1.2337,-1.2066,-1.1756,-1.1523,-1.1565,-1.132,-1.1121,-1.0816,-1.0601,-1.035,-0.998,-0.9677,-0.9497,-0.9193,-0.9009,-0.9007,-0.8931,-0.8942,-0.8909,-0.9376,-0.9471,-0.8939,-0.8939,-0.8939,-0.8939,-0.8939,-0.8939,-1.3083,-1.2853,-1.2625,-1.2328,-1.2152,-1.1944,-1.1711,-1.1579,-1.1309,-1.0983,-1.0949,-1.0601,-1.0368,-0.9961,-0.9805,-0.9531,-0.96,-0.9492,-0.9464,-0.9438,-0.9421,-1.0099,-0.9475,-0.9476,-0.9477,-0.9478,-0.9479,0,-1.3503,-1.3461,-1.3193,-1.2906,-1.2685,-1.2452,-1.2227,-1.208,-1.196,-1.174,-1.1416,-1.1216,-1.0821,-1.0505,-1.02,-1.0056,-1.0067,-1.0059,-0.9985,-0.9996,-1.0051,-1.0018,-1.0783,-1.0076,-1.008,-1.0084,-1.0086,-1.0088,-1.4106,-1.3843,-1.3567,-1.3389,-1.3247,-1.2958,-1.277,-1.2683,-1.2487,-1.2194,-1.1991,-1.1674,-1.1415,-1.0902,-1.074,-1.0441,-1.0442,-1.0182,-1.0396,-1.0423,-1.0437,-1.0453,-1.0427,-1.014,-1.0133,-1.0128,-1.0123,0,-1.4453,-1.4337,-1.3904,-1.3654,-1.3583,-1.331,-1.3094,-1.2856,-1.275,-1.2407,-1.2321,-1.2151,-1.183,-1.1709,-1.1315,-1.1261,-1.081,-1.0819,-1.0894,-1.0888,-1.0643,-1.0667,-0.9863,-0.9754,-1.0395,-1.0389,-1.0384,0,-1.492,-1.4575,-1.4422,-1.4176,-1.3792,-1.3712,-1.3332,-1.3202,-1.2997,-1.2726,-1.2722,-1.2467,-1.2351,-1.2078,-1.1997,-1.1606,-1.1531,-1.1466,-1.1447,-1.1464,-1.1472,-1.1352,-1.1381,-1.1416,-1.142,-1.1424,-1.1427,0,-1.5472,-1.4983,-1.4585,-1.4454,-1.4147,-1.3961,-1.3823,-1.3591,-1.3405,-1.3144,-1.3022,-1.2721,-1.2555,-1.2322,-1.2221,-1.2372,-1.174,-1.1925,-1.1672,-1.1674,-1.1533,-1.1542,-1.0866,-1.1433,-1.1434,-1.1435,-1.1437,0,-1.5829,-1.557,-1.5009,-1.4755,-1.4628,-1.4362,-1.4064,-1.3809,-1.3563,-1.3496,-1.3288,-1.3267,-1.2914,-1.3108,-1.262,-1.2846,-1.2683,-1.2588,-1.2567,-1.2523,-1.2743,-1.2376,-1.1746,-1.1675,-1.2493,-1.2501,-1.2509,0,-1.6495,-1.5895,-1.5821,-1.5286,-1.4992,-1.5009,-1.4712,-1.4494,-1.4379,-1.4111,-1.3983,-1.3674,-1.3793,-1.3678,-1.3453,-1.3306,-1.3013,-1.3342,-1.2951,-1.2938,-1.3017,-1.2437,-1.2372,-1.1899,-1.262,-1.2608,-1.26,0,-1.6994,-1.6623,-1.6532,-1.6379,-1.6077,-1.5828,-1.5487,-1.5164,-1.4991,-1.4742,-1.4452,-1.4013,-1.4086,-1.3894,-1.3841,-1.3613,-1.3209,-1.3718,-1.371,-1.3631,-1.2664,-1.2607,-1.2527,-1.3224,-1.3211,-1.32,-1.2688,0,-1.7561,-1.7243,-1.6993,-1.665,-1.6439,-1.6095,-1.5966,-1.5761,-1.5736,-1.5621,-1.519,-1.4969,-1.4632,-1.4508,-1.4476,-1.3992,-1.4052,-1.4129,-1.4303,-1.3925,-1.3752,-1.3682,-1.4573,-1.4577,-1.4581,-1.4584,0,0,-1.8226,-1.7767,-1.7691,-1.7356,-1.7173,-1.7191,-1.6834,-1.6656,-1.6292,-1.6164,-1.6263,-1.561,-1.5422,-1.4911,-1.4783,-1.4645,-1.4546,-1.468,-1.4106,-1.4054,-1.4004,-1.3823,-1.3752,-1.459,-1.4592,-1.4593,-1.4594,0,-1.8405,-1.8225,-1.7874,-1.7689,-1.741,-1.7305,-1.7221,-1.6944,-1.6852,-1.6428,-1.6442,-1.6166,-1.564,-1.5443,-1.5273,-1.4742,-1.4762,-1.4648,-1.4409,-1.4148,-1.4091,-1.4039,-1.385,-1.3783,-1.4603,-1.4602,-1.4602,0,-1.8873,-1.8674,-1.849,-1.8074,-1.7888,-1.7581,-1.7737,-1.7403,-1.7173,-1.7197,-1.6774,-1.6631,-1.6352,-1.5885,-1.5669,-1.575,-1.4969,-1.5188,-1.5161,-1.5132,-1.4873,-1.4804,-1.4743,-1.5551,-1.5555,-1.5558,0,0,-1.9045,-1.8748,-1.8501,-1.8101,-1.7985,-1.7821,-1.7642,-1.7597,-1.735,-1.725,-1.7065,-1.6821,-1.6516,-1.6315,-1.602,-1.5525,-1.5459,-1.5311,-1.5266,-1.523,-1.5182,-1.4913,-1.4845,-1.5573,-1.5573,-1.5574,0,0,-1.9124,-1.8825,-1.8843,-1.8364,-1.8132,-1.7856,-1.7616,-1.7629,-1.7351,-1.7375,-1.7274,-1.7204,-1.6764,-1.6619,-1.6833,-1.6079,-1.6255,-1.6201,-1.6189,-1.613,-1.6086,-1.6128,-1.6953,0,0,0,0,0,-1.9239,-1.8864,-1.8884,-1.8784,-1.825,-1.7848,-1.7778,-1.769,-1.7821,-1.7633,-1.7481,-1.7514,-1.6715,-1.6902,-1.6801,-1.6561,-1.5762,-1.5729,-1.5697,-1.5564,-1.5504,-1.5454,0,0,0,0,0,0,-1.9199,-1.9078,-1.8893,-1.8604,-1.8484,-1.7861,-1.8061,-1.8026,-1.7838,-1.7852,-1.7544,-1.7505,-1.7418,-1.6948,-1.6858,-1.6632,-1.6983,-1.5749,-1.5721,-1.5695,-1.5543,-1.5495,-1.5453,0,0,0,0,0,-1.9167,-1.9069,-1.8237,-1.8609,-1.8503,-1.8298,-1.8074,-1.8047,-1.7899,-1.766,-1.7623,-1.785,-1.7414,-1.7332,-1.6894,-1.6675,-1.7044,-1.7011,-1.5731,-1.5708,-1.5688,-1.5519,0,0,0,0,0,0,-1.9143,-1.9039,-1.8214,-1.8178,-1.8744,-1.8331,-1.8264,-1.8065,-1.7718,-1.7678,-1.7964,-1.7978,-1.7406,-1.7344,-1.7281,-1.6695,-1.7094,-1.7061,-1.704,-1.5713,-1.5696,-1.568,0,0,0,0,0,0,-1.9091,-1.9009,-1.8195,-1.8371,-1.8354,-1.8362,-1.8302,-1.7914,-1.7713,-1.804,-1.8042,-1.7974,-1.7499,-1.7351,-1.7302,-1.67,-1.7133,-1.7101,-1.7078,-1.7064,-1.5699,-1.5685,0,0,0,0,0,0,-1.9055,-1.8984,-1.838,-1.8367,-1.8353,-1.7949,-1.8017,-1.7472,-1.7871,-1.8055,-1.7904,-1.7919,-1.7504,-1.7453,-1.7316,-1.6734,-1.6709,-1.7132,-1.711,-1.7094,-1.7084,0,0,0,0,0,0,0,-1.9025,-1.9521,-1.8425,-1.8363,-1.8352,-1.7851,-1.7841,-1.7831,-1.7874,-1.7887,-1.79,-1.7912,-1.7316,-1.7281,-1.7246,-1.6763,0,0,-1.7135,-1.7119,0,0,0,0,0,0,0,0,-1.9549,-1.9528,-1.8423,-1.8416,-1.8409,-1.7849,-1.7841,-1.7833,-1.7877,-1.7887,-1.7898,-1.7907,-1.7307,-1.7279,-1.725,0,0,0,0,0,0,0,0,0,0,0,0,0,0,0,-1.8423,-1.8417,0,-1.7848,-1.7842,-1.7835,-1.7878,-1.7887,-1.7895,-1.7903,-1.7299,-1.7276,-1.7252,0,0,0,0,0,0,0,0,0,0,0,0,0,0,0,0,0,0,0,0,0,0,0,0,0,0,0,0,0,0,0,0,0,0,0,0,0,0,0,0,0,0,0,0,0,0,0,0,0,0,0,0,0,0,0,0,0,0,0,0,0,0,0,0,0,0,0,0,0]}]]]